Observations
| Time | Sensor | AQI | SAQ | Temp °C | Hum % | Pres Pa | CO μg/m³ | H₂S μg/m³ | NO μg/m³ | NO₂ μg/m³ | O₃ μg/m³ | SO₂ μg/m³ | CO₂e PPM | VOC PPM | PM1 μg/m³ | PM2.5 μg/m³ | PM4 μg/m³ | PM10 μg/m³ | TPS µm |
|---|---|---|---|---|---|---|---|---|---|---|---|---|---|---|---|---|---|---|---|
| Thursday 13 August 2026 | |||||||||||||||||||
| 04:45 | Trim Market St | 2 | 21.4 | 74 | 33,527 | 0 | 0 | 1.25 | 9.57 | 39.56 | 0 | 2.85 | 3.34 | 6.33 | |||||
| 04:45 | Trim Patrick St | 2 | 20.9 | 77 | 38,460 | 0 | 0.57 | 1.61 | 13.29 | 27.19 | 4.3 | 5.43 | 10.34 | 11.37 | |||||
| 04:44 | Trim Market St | 2 | 21.4 | 74 | 33,483 | 0 | 0 | 1.29 | 5.42 | 40.7 | 0 | 2.14 | 3.34 | 6.93 | |||||
| 04:44 | Trim Patrick St | 2 | 20.8 | 78 | 38,460 | 0 | 3.77 | 1.66 | 9.65 | 30.51 | 5.01 | 5.43 | 8.9 | 9.78 | |||||
| 04:43 | Trim Market St | 2 | 21.4 | 74 | 33,283 | 0 | 0 | 1.33 | 8.88 | 39.63 | 0 | 3.56 | 5.26 | 8.13 | |||||
| 04:43 | Trim Patrick St | 2 | 20.8 | 78 | 38,460 | 0 | 5.48 | 1.55 | 16.59 | 30.32 | 4.2 | 6.29 | 11 | 12.1 | |||||
| 04:42 | Trim Market St | 2 | 21.4 | 74 | 33,147 | 0 | 0 | 1.34 | 7.02 | 38.59 | 0 | 1.43 | 2.86 | 5.12 | |||||
| 04:42 | Trim Patrick St | 2 | 20.9 | 78 | 38,460 | 0 | 4.61 | 1.5 | 15.21 | 25.7 | 4.66 | 5.43 | 8.19 | 9.01 | |||||
| 04:41 | Trim Market St | 2 | 21.4 | 74 | 32,997 | 0 | 0 | 1.37 | 10.9 | 36.23 | 0 | 1.43 | 3.33 | 6.33 | |||||
| 04:41 | Trim Patrick St | 2 | 20.9 | 78 | 38,460 | 0 | 0 | 1.65 | 4.92 | 29.84 | 4.51 | 3.71 | 9.59 | 10.55 | |||||
| 04:40 | Trim Market St | 2 | 21.4 | 74 | 32,966 | 0 | 0 | 1.4 | 8.89 | 38.87 | 0 | 2.85 | 6.22 | 10.54 | |||||
| 04:40 | Trim Patrick St | 2 | 20.9 | 77 | 38,460 | 0 | 4.87 | 1.73 | 9.85 | 32.28 | 4.97 | 4.57 | 8.92 | 9.81 | |||||
| 04:39 | Trim Market St | 2 | 21.4 | 74 | 32,824 | 0 | 0 | 1.37 | 9.65 | 37.02 | 0 | 2.85 | 4.29 | 6.93 | |||||
| 04:39 | Trim Patrick St | 2 | 20.9 | 78 | 38,460 | 0 | 5.37 | 1.6 | 16.1 | 25.25 | 3.91 | 6.29 | 9.6 | 10.56 | |||||
| 04:38 | Trim Market St | 2 | 21.4 | 74 | 32,575 | 0 | 0 | 1.3 | 8.19 | 38.97 | 0 | 2.85 | 3.81 | 7.53 | |||||
| 04:37 | Trim Market St | 2 | 21.4 | 74 | 32,219 | 0 | 0 | 1.32 | 10.01 | 39.79 | 0 | 2.85 | 3.81 | 6.33 | |||||
| 04:37 | Trim Patrick St | 2 | 20.8 | 77 | 38,460 | 0 | 3.35 | 1.44 | 12.82 | 34.3 | 4.65 | 6.29 | 10.36 | 11.4 | |||||
| 04:36 | Trim Market St | 2 | 21.4 | 74 | 31,789 | 0 | 0 | 1.31 | 5.9 | 48.45 | 0 | 3.56 | 4.77 | 7.53 | |||||
| 04:36 | Trim Patrick St | 2 | 20.9 | 77 | 38,460 | 0 | 2.97 | 1.4 | 6.6 | 31.05 | 5.29 | 5.43 | 9.64 | 10.6 | |||||
| 04:35 | Trim Patrick St | 2 | 20.8 | 78 | 38,460 | 0 | 7.4 | 1.32 | 20.01 | 27.54 | 4.15 | 6.29 | 9.61 | 10.57 | |||||